| time (UTC) | temp F | wind direction | speed knots | gust knots | rain 1hr in | rain 24hr in | rain mn in | humidity % | barometer mb |
| 20260505053801 | 0 | 208 | 0.0 | 0.0 | 0.00 | 0.00 | 0.00 | 1009.3 | |
| 20260505053258 | 0 | 194 | 0.0 | 0.0 | 0.00 | 0.00 | 0.00 | 1009.3 | |
| 20260505052754 | 0 | 207 | 0.9 | 0.9 | 0.00 | 0.00 | 0.00 | 1009.4 | |
| 20260505052251 | 0 | 210 | 0.0 | 0.0 | 0.00 | 0.00 | 0.00 | 1009.6 | |
| 20260505051748 | 0 | 209 | 0.0 | 0.0 | 0.00 | 0.00 | 0.00 | 1009.7 | |
| 20260505051246 | 0 | 204 | 0.0 | 0.0 | 0.00 | 0.00 | 0.00 | 1009.4 | |
| 20260505050744 | 0 | 198 | 0.9 | 0.9 | 0.00 | 0.00 | 0.00 | 1009.7 | |
| 20260505050242 | 0 | 209 | 0.9 | 0.9 | 0.00 | 0.00 | 0.00 | 1009.5 | |
| 20260505041712 | 0 | 205 | 0.0 | 0.0 | 0.00 | 0.00 | 0.00 | 1009.3 | |
| 20260505041209 | 0 | 208 | 0.0 | 0.0 | 0.00 | 0.00 | 0.00 | 1009.2 | |
| 20260505040706 | 0 | 205 | 0.0 | 0.0 | 0.00 | 0.00 | 0.00 | 1009.3 | |
| 20260505040204 | 0 | 208 | 0.9 | 0.9 | 0.00 | 0.00 | 0.00 | 1009.2 | |
| 20260505035700 | 0 | 214 | 0.9 | 0.9 | 0.00 | 0.00 | 0.00 | 1009.1 | |
| 20260505035156 | 0 | 215 | 0.0 | 0.0 | 0.00 | 0.00 | 0.00 | 1009.2 | |
| 20260505034653 | 0 | 201 | 1.7 | 1.7 | 0.00 | 0.00 | 0.00 | 1009.1 | |
| 20260505034150 | 0 | 198 | 0.9 | 1.7 | 0.00 | 0.00 | 0.00 | 1009.2 | |
| 20260505033646 | 0 | 215 | 0.0 | 0.9 | 0.00 | 0.00 | 0.00 | 1009.1 | |
| 20260505033145 | 0 | 207 | 0.0 | 0.0 | 0.00 | 0.00 | 0.00 | 1009.0 | |
| 20260505032643 | 0 | 206 | 0.0 | 0.0 | 0.00 | 0.00 | 0.00 | 1009.3 | |
| 20260505032138 | 0 | 208 | 0.0 | 0.0 | 0.00 | 0.00 | 0.00 | 1009.1 | |
| 20260505031636 | 0 | 214 | 0.0 | 0.0 | 0.00 | 0.00 | 0.00 | 1009.2 | |
| 20260505031132 | 0 | 196 | 0.9 | 1.7 | 0.00 | 0.00 | 0.00 | 1009.2 | |
| 20260505030629 | 0 | 198 | 0.9 | 0.9 | 0.00 | 0.00 | 0.00 | 1009.2 | |
| 20260505030125 | 0 | 188 | 0.0 | 0.9 | 0.00 | 0.00 | 0.00 | 1009.0 | |
| 20260505025621 | 0 | 201 | 1.7 | 2.6 | 0.00 | 0.00 | 0.00 | 1009.2 | |
| 20260505025120 | 0 | 200 | 0.9 | 0.9 | 0.00 | 0.00 | 0.00 | 1009.3 | |
| 20260505024617 | 0 | 209 | 0.9 | 0.9 | 0.00 | 0.00 | 0.00 | 1009.3 | |
| 20260505024114 | 0 | 191 | 2.6 | 2.6 | 0.00 | 0.00 | 0.00 | 1009.1 | |
| 20260505023611 | 0 | 218 | 0.0 | 0.0 | 0.00 | 0.00 | 0.00 | 1009.4 | |
| 20260505023109 | 0 | 219 | 0.0 | 0.0 | 0.00 | 0.00 | 0.00 | 1009.2 | |
| 20260505022606 | 0 | 222 | 0.0 | 0.0 | 0.00 | 0.00 | 0.00 | 1009.0 | |
| 20260505022103 | 0 | 216 | 0.0 | 0.0 | 0.00 | 0.00 | 0.00 | 1009.1 | |
| 20260505021559 | 0 | 206 | 0.0 | 0.0 | 0.00 | 0.00 | 0.00 | 1009.2 | |
| 20260505021056 | 0 | 219 | 0.0 | 0.0 | 0.00 | 0.00 | 0.00 | 1009.3 | |
| 20260505020556 | 0 | 206 | 0.0 | 0.0 | 0.00 | 0.00 | 0.00 | 1009.3 | |
| 20260505020053 | 0 | 221 | 0.0 | 0.0 | 0.00 | 0.00 | 0.00 | 1009.2 | |
| 20260505015550 | 0 | 207 | 0.0 | 0.0 | 0.00 | 0.00 | 0.00 | 1009.2 | |
| 20260505015047 | 0 | 212 | 0.0 | 0.0 | 0.00 | 0.00 | 0.00 | 1009.4 | |
| 20260505014544 | 0 | 216 | 0.0 | 0.0 | 0.00 | 0.00 | 0.00 | 1009.3 | |
| 20260505014041 | 0 | 213 | 0.0 | 0.0 | 0.00 | 0.00 | 0.00 | 1009.0 | |
| 20260505013538 | 0 | 235 | 0.0 | 0.0 | 0.00 | 0.00 | 0.00 | 1009.5 | |
| 20260505013036 | 0 | 221 | 0.0 | 0.0 | 0.00 | 0.00 | 0.00 | 1009.2 | |
| 20260505012534 | 0 | 219 | 0.0 | 0.0 | 0.00 | 0.00 | 0.00 | 1009.2 | |
| 20260505012030 | 0 | 201 | 0.0 | 0.0 | 0.00 | 0.00 | 0.00 | 1008.9 | |
| 20260505011526 | 0 | 226 | 0.0 | 0.0 | 0.00 | 0.00 | 0.00 | 1008.9 | |
| 20260505011023 | 0 | 218 | 0.0 | 0.0 | 0.00 | 0.00 | 0.00 | 1008.8 | |
| 20260505010518 | 0 | 217 | 0.0 | 0.0 | 0.00 | 0.00 | 0.00 | 1008.9 | |
| 20260505010015 | 0 | 215 | 0.0 | 0.0 | 0.00 | 0.00 | 0.00 | 1008.8 | |
| 20260505005512 | 0 | 220 | 0.0 | 0.0 | 0.00 | 0.00 | 0.00 | 1008.9 | |
| 20260505005009 | 0 | 229 | 0.0 | 0.0 | 0.00 | 0.00 | 0.00 | 1008.4 | |
| 20260505004506 | 0 | 200 | 0.0 | 0.0 | 0.00 | 0.00 | 0.00 | 1008.6 | |
| 20260505004003 | 0 | 204 | 0.0 | 0.0 | 0.00 | 0.00 | 0.00 | 1008.5 | |
| 20260505003500 | 0 | 215 | 0.0 | 0.0 | 0.00 | 0.00 | 0.00 | 1008.6 | |
| 20260505002956 | 0 | 210 | 0.0 | 0.0 | 0.00 | 0.00 | 0.00 | 1008.7 | |
| 20260505002452 | 0 | 238 | 0.0 | 0.0 | 0.00 | 0.00 | 0.00 | 1008.5 | |
| 20260505001951 | 0 | 225 | 0.0 | 0.0 | 0.00 | 0.00 | 0.00 | 1008.7 | |
| 20260505001448 | 0 | 221 | 0.0 | 0.0 | 0.00 | 0.00 | 0.00 | 1008.4 | |
| 20260505000945 | 0 | 226 | 0.0 | 0.9 | 0.00 | 0.00 | 0.00 | 1008.6 | |
| 20260505000443 | 0 | 205 | 0.9 | 1.7 | 0.00 | 0.00 | 0.00 | 1008.8 | |
| 20260504235940 | 0 | 230 | 0.0 | 0.0 | 0.00 | 0.00 | 0.00 | 1008.6 | |
| 20260504235437 | 0 | 211 | 0.9 | 1.7 | 0.00 | 0.00 | 0.00 | 1008.5 | |
| 20260504234933 | 0 | 209 | 0.0 | 0.0 | 0.00 | 0.00 | 0.00 | 1008.7 | |
| 20260504234431 | 0 | 209 | 0.9 | 0.9 | 0.00 | 0.00 | 0.00 | 1008.7 | |
| 20260504233927 | 0 | 210 | 0.9 | 1.7 | 0.00 | 0.00 | 0.00 | 1008.4 | |
| 20260504233423 | 0 | 211 | 0.9 | 0.9 | 0.00 | 0.00 | 0.00 | 1008.4 | |
| 20260504232920 | 0 | 189 | 0.0 | 0.0 | 0.00 | 0.00 | 0.00 | 1008.6 | |
| 20260504232417 | 0 | 205 | 1.7 | 2.6 | 0.00 | 0.00 | 0.00 | 1008.4 | |
| 20260504231914 | 0 | 208 | 0.9 | 0.9 | 0.00 | 0.00 | 0.00 | 1008.6 | |
| 20260504231410 | 0 | 185 | 0.9 | 2.6 | 0.00 | 0.00 | 0.00 | 1008.5 | |
| 20260504230907 | 0 | 196 | 2.6 | 4.3 | 0.00 | 0.00 | 0.00 | 1008.6 | |
| 20260504230404 | 0 | 205 | 1.7 | 1.7 | 0.00 | 0.00 | 0.00 | 1008.4 | |
| 20260504225903 | 0 | 156 | 0.9 | 0.9 | 0.00 | 0.00 | 0.00 | 1008.4 | |
| 20260504225359 | 0 | 224 | 0.0 | 0.0 | 0.00 | 0.00 | 0.00 | 1008.6 | |
| 20260504224856 | 0 | 219 | 0.9 | 0.9 | 0.00 | 0.00 | 0.00 | 1008.4 | |
| 20260504224353 | 0 | 204 | 0.9 | 1.7 | 0.00 | 0.00 | 0.00 | 1008.6 | |
| 20260504223850 | 0 | 211 | 0.9 | 1.7 | 0.00 | 0.00 | 0.00 | 1008.3 | |
| 20260504223345 | 0 | 221 | 0.9 | 1.7 | 0.00 | 0.00 | 0.00 | 1008.4 | |
| 20260504222842 | 0 | 190 | 1.7 | 1.7 | 0.00 | 0.00 | 0.00 | 1008.3 | |
| 20260504222338 | 0 | 235 | 1.7 | 2.6 | 0.00 | 0.00 | 0.00 | 1008.3 | |
| 20260504221837 | 0 | 176 | 0.9 | 1.7 | 0.00 | 0.00 | 0.00 | 1008.3 | |
| 20260504221333 | 0 | 219 | 0.0 | 0.0 | 0.00 | 0.00 | 0.00 | 1008.3 | |
| 20260504220831 | 0 | 226 | 1.7 | 1.7 | 0.00 | 0.00 | 0.00 | 1008.4 | |
| 20260504220327 | 0 | 213 | 1.7 | 2.6 | 0.00 | 0.00 | 0.00 | 1008.4 | |
| 20260504215825 | 0 | 167 | 2.6 | 4.3 | 0.00 | 0.00 | 0.00 | 1008.5 | |
| 20260504215321 | 0 | 210 | 1.7 | 2.6 | 0.00 | 0.00 | 0.00 | 1008.1 | |
| 20260504214817 | 0 | 201 | 0.9 | 1.7 | 0.00 | 0.00 | 0.00 | 1008.2 | |
| 20260504214314 | 0 | 240 | 0.0 | 0.9 | 0.00 | 0.00 | 0.00 | 1008.6 | |
| 20260504213810 | 0 | 200 | 2.6 | 2.6 | 0.00 | 0.00 | 0.00 | 1008.3 | |
| 20260504213307 | 0 | 226 | 0.0 | 0.9 | 0.00 | 0.00 | 0.00 | 1008.4 | |
| 20260504212804 | 0 | 269 | 1.7 | 4.3 | 0.00 | 0.00 | 0.00 | 1008.5 | |
| 20260504212300 | 0 | 228 | 0.9 | 0.9 | 0.00 | 0.00 | 0.00 | 1008.3 | |
| 20260504211758 | 0 | 234 | 0.9 | 1.7 | 0.00 | 0.00 | 0.00 | 1008.4 | |
| 20260504211254 | 0 | 210 | 0.9 | 1.7 | 0.00 | 0.00 | 0.00 | 1008.4 | |
| 20260504210752 | 0 | 182 | 0.9 | 1.7 | 0.00 | 0.00 | 0.00 | 1008.5 | |
| 20260504210249 | 0 | 195 | 0.0 | 0.9 | 0.00 | 0.00 | 0.00 | 1008.3 | |
| 20260504205745 | 0 | 85 | 0.9 | 1.7 | 0.00 | 0.00 | 0.00 | 1008.6 | |
| 20260504205243 | 0 | 223 | 0.0 | 0.0 | 0.00 | 0.00 | 0.00 | 1008.5 | |
| 20260504204741 | 0 | 312 | 0.0 | 0.9 | 0.00 | 0.00 | 0.00 | 1008.8 | |
| 20260504204239 | 0 | 268 | 0.9 | 0.9 | 0.00 | 0.00 | 0.00 | 1008.5 | |
| 20260504203738 | 0 | 186 | 1.7 | 4.3 | 0.00 | 0.00 | 0.00 | 1008.5 | |
| 20260504203235 | 0 | 196 | 3.5 | 5.2 | 0.00 | 0.00 | 0.00 | 1009.0 | |
| 20260504202735 | 0 | 214 | 1.7 | 1.7 | 0.00 | 0.00 | 0.00 | 1009.0 | |
| 20260504202233 | 0 | 227 | 0.0 | 0.0 | 0.00 | 0.00 | 0.00 | 1009.1 | |
| 20260504201730 | 0 | 254 | 2.6 | 2.6 | 0.00 | 0.00 | 0.00 | 1009.2 | |
| 20260504201227 | 0 | 260 | 0.9 | 0.9 | 0.00 | 0.00 | 0.00 | 1009.0 | |
| 20260504200725 | 0 | 207 | 1.7 | 1.7 | 0.00 | 0.00 | 0.00 | 1009.3 | |
| 20260504200220 | 0 | 219 | 0.9 | 0.9 | 0.00 | 0.00 | 0.00 | 1009.2 | |
| 20260504195717 | 0 | 189 | 3.5 | 4.3 | 0.00 | 0.00 | 0.00 | 1009.2 | |
| 20260504195213 | 0 | 182 | 0.9 | 1.7 | 0.00 | 0.00 | 0.00 | 1009.3 | |
| 20260504194710 | 0 | 200 | 2.6 | 4.3 | 0.00 | 0.00 | 0.00 | 1009.4 | |
| 20260504194206 | 0 | 194 | 2.6 | 4.3 | 0.00 | 0.00 | 0.00 | 1009.5 | |
| 20260504193702 | 0 | 209 | 0.9 | 1.7 | 0.00 | 0.00 | 0.00 | 1009.6 | |
| 20260504193200 | 0 | 47 | 0.0 | 0.9 | 0.00 | 0.00 | 0.00 | 1009.6 | |
| 20260504192658 | 0 | 243 | 1.7 | 1.7 | 0.00 | 0.00 | 0.00 | 1009.7 | |
| 20260504192156 | 0 | 138 | 1.7 | 2.6 | 0.00 | 0.00 | 0.00 | 1009.7 | |
| 20260504191654 | 0 | 281 | 0.9 | 1.7 | 0.00 | 0.00 | 0.00 | 1009.8 | |
| 20260504191150 | 0 | 220 | 2.6 | 2.6 | 0.00 | 0.00 | 0.00 | 1009.9 | |
| 20260504190646 | 0 | 38 | 2.6 | 4.3 | 0.00 | 0.00 | 0.00 | 1010.0 | |
| 20260504190143 | 0 | 213 | 1.7 | 1.7 | 0.00 | 0.00 | 0.00 | 1010.1 | |
| 20260504185639 | 0 | 216 | 0.9 | 1.7 | 0.00 | 0.00 | 0.00 | 1010.0 | |
| 20260504185136 | 0 | 252 | 0.9 | 1.7 | 0.00 | 0.00 | 0.00 | 1010.1 | |
| 20260504184632 | 0 | 248 | 0.9 | 1.7 | 0.00 | 0.00 | 0.00 | 1010.2 | |
| 20260504184127 | 0 | 252 | 1.7 | 2.6 | 0.00 | 0.00 | 0.00 | 1010.6 | |
| 20260504183625 | 0 | 204 | 3.5 | 4.3 | 0.00 | 0.00 | 0.00 | 1010.3 | |
| 20260504183122 | 0 | 242 | 0.9 | 0.9 | 0.00 | 0.00 | 0.00 | 1010.6 | |
| 20260504182620 | 0 | 216 | 0.9 | 0.9 | 0.00 | 0.00 | 0.00 | 1010.5 | |
| 20260504182117 | 0 | 165 | 4.3 | 5.2 | 0.00 | 0.00 | 0.00 | 1010.6 | |
| 20260504181614 | 0 | 198 | 2.6 | 4.3 | 0.00 | 0.00 | 0.00 | 1010.7 | |
| 20260504181112 | 0 | 181 | 0.9 | 0.9 | 0.00 | 0.00 | 0.00 | 1010.8 | |
| 20260504180611 | 0 | 97 | 2.6 | 2.6 | 0.00 | 0.00 | 0.00 | 1010.8 | |
| 20260504180109 | 0 | 302 | 3.5 | 4.3 | 0.00 | 0.00 | 0.00 | 1010.8 | |
| 20260504175606 | 0 | 284 | 1.7 | 1.7 | 0.00 | 0.00 | 0.00 | 1011.0 | |
| 20260504175103 | 0 | 237 | 0.9 | 1.7 | 0.00 | 0.00 | 0.00 | 1010.9 | |
| 20260504174601 | 0 | 282 | 0.9 | 1.7 | 0.00 | 0.00 | 0.00 | 1011.0 | |
| 20260504174057 | 0 | 236 | 0.9 | 0.9 | 0.00 | 0.00 | 0.00 | 1010.9 | |
| 20260504173554 | 0 | 190 | 0.0 | 0.0 | 0.00 | 0.00 | 0.00 | 1010.9 | |
| 20260504173052 | 0 | 208 | 2.6 | 2.6 | 0.00 | 0.00 | 0.00 | 1010.9 | |
| 20260504172547 | 0 | 178 | 2.6 | 2.6 | 0.00 | 0.00 | 0.00 | 1011.3 | |
| 20260504172044 | 0 | 243 | 0.9 | 0.9 | 0.00 | 0.00 | 0.00 | 1011.1 | |
| 20260504171541 | 0 | 229 | 0.0 | 0.0 | 0.00 | 0.00 | 0.00 | 1011.3 | |
| 20260504171038 | 0 | 232 | 2.6 | 2.6 | 0.00 | 0.00 | 0.00 | 1011.3 | |
| 20260504170534 | 0 | 303 | 5.2 | 7.8 | 0.00 | 0.00 | 0.00 | 1011.5 | |
| 20260504150918 | 0 | 87 | 0.0 | 0.9 | 0.00 | 0.00 | 0.00 | 1012.7 | |
| 20260504150415 | 0 | 188 | 1.7 | 1.7 | 0.00 | 0.00 | 0.00 | 1012.6 | |
| 20260504140841 | 0 | 179 | 2.6 | 2.6 | 0.00 | 0.00 | 0.00 | 1012.9 | |
| 20260504140337 | 0 | 341 | 0.9 | 1.7 | 0.00 | 0.00 | 0.00 | 1013.0 | |
| 20260504130806 | 0 | 141 | 2.6 | 5.2 | 0.00 | 0.00 | 0.00 | 1013.5 | |
| 20260504130302 | 0 | 237 | 1.7 | 2.6 | 0.00 | 0.00 | 0.00 | 1013.2 | |
| 20260504120225 | 0 | 216 | 0.0 | 0.9 | 0.00 | 0.00 | 0.00 | 1013.7 | |
| 20260504110653 | 0 | 226 | 0.0 | 0.0 | 0.00 | 0.00 | 0.00 | 1014.0 | |
| 20260504110149 | 0 | 188 | 0.0 | 0.0 | 0.00 | 0.00 | 0.00 | 1014.1 | |
| 20260504100615 | 0 | 208 | 0.0 | 0.0 | 0.00 | 0.00 | 0.00 | 1014.0 | |
| 20260504100113 | 0 | 212 | 0.0 | 0.0 | 0.00 | 0.00 | 0.00 | 1013.9 | |
| 20260504081506 | 0 | 222 | 0.0 | 0.0 | 0.00 | 0.00 | 0.00 | 1014.1 | |
| 20260504081001 | 0 | 224 | 0.0 | 0.0 | 0.00 | 0.00 | 0.00 | 1014.1 | |
| 20260504080458 | 0 | 227 | 0.0 | 0.0 | 0.00 | 0.00 | 0.00 | 1014.2 |